Regional Weather Roundup
Issued by NWS Charleston, SC

Current Version | Previous Version | Text Only | Print | Product List | Glossary Off
Versions: 1 2 3 4 5 6 7 8 9 10 11 12 13 14 15 16 17 18 19 20 21 22 23 24 25 26 27 28 29 30 31 32 33 34 35 36 37 38 39 40 41 42 43 44 45 46 47 48 49 50

000
ASUS42 KCHS 162110
RWRCHS
REGIONAL WEATHER ROUNDUP
NATIONAL WEATHER SERVICE CHARLESTON SC
500 PM EDT WED APR 16 2014

NOTE: "FAIR" INDICATES FEW OR NO CLOUDS BELOW 12,000 FEET WITH NO
SIGNIFICANT WEATHER AND/OR OBSTRUCTIONS TO VISIBILITY.

NOT ALL STATIONS ARE QUALITY CONTROLLED BY THE NATIONAL
WEATHER SERVICE. USE DATA WITH CAUTION...ESPECIALLY
DEWPOINT OBSERVATIONS.

SCZ027-030-031-034>040-042>050-162200-
...SOUTH CAROLINA...

CITY           SKY/WX    TMP DP  RH WIND       PRES   REMARKS
N CHARLESTON   MOSUNNY   60  37  42 E10       30.28S
WATERFRONT PRK   N/A     55 N/A N/A E20G26      N/A
FORT JOHNSON   NOT AVBL
MOUNT PLEASANT FAIR     N/A N/A N/A E7G16     30.29S
JOHNS ISLAND   CLEAR     55  41  58 E18G24    30.29S
PINOPOLIS        N/A     59  32  36 NE6G13    30.22S
MONCKS CORNER  FAIR      61  37  41 NE7       30.28F
SUMMERVILLE    FAIR      61  34  36 N12       30.28F
BEAUFORT MCAS  MOSUNNY   60  43  53 S8G18     30.28S
BEAUFORT ARPT  FAIR      57  45  62 E7        30.28S
HILTON HEAD IS SUNNY     55  41  58 NE12G18   30.29F
GEORGETOWN     NOT AVBL
WALTERBORO     CLEAR     61  34  36 NE7       30.29S
ORANGEBURG     SUNNY     58  27  30 VRB3      30.29F
BARNWELL       FAIR      61  30  31 NE10      30.28F
AIKEN          FAIR      59  32  36 E10       30.31S
MANNING        NOT AVBL
KINGSTREE      NOT AVBL
COLUMBIA       SUNNY     61  24  24 NE9       30.29S
SUMTER         SUNNY     58  28  31 E14G21    30.29F
FLORENCE       SUNNY     58  27  30 N12       30.32S
MYRTLE BEACH   SUNNY     54  37  54 SE17      30.31S
N MYRTLE BEACH SUNNY     55  37  50 E10G16    30.32R

$$

GAZ063-065-086>088-099>101-113>116-118-119-134-136>141-150-162200-
...GEORGIA...

CITY           SKY/WX    TMP DP  RH WIND       PRES   REMARKS
SAVANNAH ARPT  MOSUNNY   61  40  45 E12       30.27S
HUNTER AAF     MOSUNNY   58  41  51 E15       30.26S
FORT STEWART   MOSUNNY   60  46  59 SE13G18   30.25S
STATESBORO     NOT AVBL
SYLVANIA       CLEAR     62  31  30 E7        30.27S
CLAXTON        FAIR      63  39  42 E7        30.25F
THOMSON        SUNNY     59  35  39 CALM      30.30F
AUGUSTA-BUSH   SUNNY     61  25  25 E8G16     30.27F
AUGUSTA-DANIEL SUNNY     61  26  26 NE14      30.27F
SWAINSBORO     FAIR      61  34  36 E10G16    30.26S
VIDALIA        SUNNY     63  36  36 E12       30.25S
ALMA           SUNNY     62  39  42 E9G18     30.22F
WAYCROSS       NOT AVBL
JESUP          CLOUDY    55  45  67 E12       30.26S
BRUNSWICK      CLOUDY    57  46  67 NE22G28   30.26S
SAINT SIMONS   MOSUNNY   60  44  55 NE22G29   30.24S

$$

SCZ027-028-034-036>038-045-046-048>050-GAZ119-141-162200-
...LAKE AND SUPPLEMENTAL COASTAL OBSERVATIONS...

STATION/POSITION TIME  TEMP    WIND        PRES    WAVE   SWELL
                       AIR SEA DIR/SP/G            HT/PER HT/PER/DIR
                 (UTC) (F)     (DEG/KT/KT) (MB)    (FT/S) (FT/S/D)
UPR LAKE MARION  NOT AVBL
WINYAH BAY       2000   52      70/ 13     1026.0S
LAKE MURRAY      2000   56      70/  2/  8 1025.4F
ACE BASIN NERRS  2000   60     130/  3     1025.0S
FORT PULASKI     2100   53 61   60/ 15/ 23 1025.9S
SAPELO ISLAND    NOT AVBL

$$

ANZ086-088-AMZ330-350-352-354-374-454-470-162200-
...C-MAN AND BUOY OBSERVATIONS...

STATION/POSITION TIME  TEMP    WIND        PRES    WAVE   SWELL
                       AIR SEA DIR/SP/G            HT/PER HT/PER/DIR
                 (UTC) (F)     (DEG/KT/KT) (MB)    (FT/S) (FT/S/D)
FOLLY BEACH CMAN 2100   53      60/ 19/ 23 1026.2S
BUOY 41004       NOT AVBL
BUOY 41008       2100   55 63   60/ 21/ 27 1024.2F   7/ 8   3/ 80/ 8
5E ST. MARYS GA  2100      65                N/A     7/ 6
FRYING PAN BUOY  2100   51 64   60/ 21/ 27 1025.9F   7/ 7   2/140/12
BUOY 41025       NOT AVBL
CAPE LOOKOUT NC  2100   49      40/ 23/ 27 1027.2R
BUOY 41002       NOT AVBL
BUOY 41010       2100   71 76   40/ 19/ 23 1018.7R   8/ 8
BUOY 41012       NOT AVBL
ST AUGUSTINE FL  2100   60      10/ 23/ 27 1022.5R


$$



USA.gov is the U.S. government's official web portal to all federal, state and local government web resources and services.